This demonstration page uses our WeatherBlox Daily Observations layout. Learn more.

36.17497, -115.13722

Hourly Observations for January 26, 2018

Temp ( °F °C ) Dew Point ( °F °C ) Humidity (%) Winds ( mph kmh ) Pressure ( in mb ) Visibility ( mi km ) Precip ( " mm )
12:53 am 00:53 Clear 46 7.8 17 -8.3 31 31 N 5 7 30.08 1019 10 16.0934 0 0
1:53 am 01:53 Clear 46 7.8 16 -8.9 30 30 WNW 12 19 30.11 1020 10 16.0934 0 0
2:53 am 02:53 Clear 43 6.1 18 -7.8 37 37 NNW 5 7 30.13 1020 10 16.0934 0 0
3:53 am 03:53 Clear 43 6.1 17 -8.3 35 35 N 8 13 30.16 1021 10 16.0934 0 0
4:53 am 04:53 Clear 42 5.6 17 -8.3 36 36 NNW 7 11 30.19 1022 10 16.0934 0 0
5:53 am 05:53 Clear 42 5.6 17 -8.3 36 36 N 9 15 30.22 1023 10 16.0934 0 0
6:53 am 06:53 Sunny 41 5 16 -8.9 36 36 N 14 22 30.25 1024 10 16.0934 0 0
7:53 am 07:53 Sunny 45 7.2 16 -8.9 31 31 NNW 9 15 30.28 1025 10 16.0934 0 0
8:53 am 08:53 Sunny 48 8.9 16 -8.9 28 28 N 9 15 30.3 1026 10 16.0934 0 0
9:53 am 09:53 Sunny 52 11.1 16 -8.9 24 24 NE 8 13 30.32 1027 10 16.0934 0 0
10:53 am 10:53 Sunny 55 12.8 15 -9.4 20 20 ENE 5 7 30.32 1027 10 16.0934 0 0
11:53 am 11:53 Sunny 54 12.2 12 -11.1 19 19 Calm 30.3 1026 10 16.0934 0 0
12:53 pm 12:53 Sunny 55 12.8 11 -11.7 17 17 SSE 3 6 30.29 1026 10 16.0934 0 0
1:53 pm 13:53 Sunny 57 13.9 10 -12.2 15 15 ENE 3 6 30.27 1025 10 16.0934 0 0
2:53 pm 14:53 Sunny 58 14.4 9 -12.8 14 14 Calm 30.27 1025 10 16.0934 0 0
3:53 pm 15:53 Sunny 57 13.9 8 -13.3 14 14 S 3 6 30.27 1025 10 16.0934 0 0
4:53 pm 16:53 Sunny 56 13.3 7 -13.9 14 14 Calm 30.28 1026 10 16.0934 0 0
5:53 pm 17:53 Clear 53 11.7 9 -12.8 17 17 Calm 30.29 1026 10 16.0934 0 0
6:53 pm 18:53 Clear 50 10 11 -11.7 21 21 Calm 30.3 1026 10 16.0934 0 0
7:53 pm 19:53 Clear 47 8.3 16 -8.9 29 29 WNW 8 13 30.32 1027 10 16.0934 0 0
8:53 pm 20:53 Clear 45 7.2 17 -8.3 33 33 NW 7 11 30.32 1027 10 16.0934 0 0
9:53 pm 21:53 Clear 45 7.2 15 -9.4 30 30 WNW 7 11 30.32 1027 10 16.0934 0 0
10:53 pm 22:53 Clear 44 6.7 15 -9.4 31 31 NNW 5 7 30.32 1027 10 16.0934 0 0
11:53 pm 23:53 Clear 44 6.7 15 -9.4 31 31 W 7 11 30.32 1027 10 16.0934 0 0

Powered by AerisWeather